• In Hungary
  • List of Countries
  • For 7 days
  • Water Temperature
  • Satellite Maps
  • Weather Map
  • News
  • Weather Widgets
  • user-avatar
    Login

    Hourly Weather Zweibrucken

    Today, 22 October, Monday

    Time Temperature Precipitation Wind Pressure Humidity
    00:00 +7°C° 0 mm 2 mps 748 mmHg 79%
    01:00 +7°C° 0 mm 2 mps 748 mmHg 79%
    02:00 +7°C° 0 mm 2 mps 748 mmHg 80%
    03:00 +7°C° 0 mm 2 mps 748 mmHg 80%
    04:00 +6°C° 0 mm 2 mps 748 mmHg 81%
    05:00 +6°C° 0 mm 2 mps 749 mmHg 81%
    06:00 +6°C° 0 mm 2 mps 749 mmHg 82%
    07:00 +8°C° 0 mm 2 mps 749 mmHg 75%
    08:00 +10°C° 0 mm 2 mps 750 mmHg 67%
    09:00 +13°C° 0 mm 2 mps 750 mmHg 60%
    10:00 +14°C° 0 mm 2 mps 750 mmHg 58%
    11:00 +14°C° 0 mm 3 mps 750 mmHg 55%
    12:00 +16°C° 0 mm 3 mps 750 mmHg 53%
    13:00 +16°C° 0 mm 3 mps 750 mmHg 59%
    14:00 +14°C° 0 mm 4 mps 750 mmHg 65%
    15:00 +13°C° 0 mm 4 mps 750 mmHg 72%
    16:00 +12°C° 0 mm 4 mps 751 mmHg 77%
    17:00 +11°C° 0 mm 3 mps 751 mmHg 81%
    18:00 +10°C° 0 mm 3 mps 752 mmHg 86%
    19:00 +9°C° 0 mm 3 mps 752 mmHg 87%
    20:00 +9°C° 0 mm 3 mps 753 mmHg 87%
    21:00 +8°C° 0 mm 3 mps 753 mmHg 87%
    22:00 +7°C° 0 mm 2 mps 753 mmHg 89%
    23:00 +6°C° 0 mm 2 mps 753 mmHg 90%

    Tomorrow, 23 October, Tuesday

    Time Temperature Precipitation Wind Pressure Humidity
    00:00 +6°C° 0 mm 2 mps 753 mmHg 92%
    01:00 +5°C° 0 mm 2 mps 753 mmHg 92%
    02:00 +6°C° 0 mm 1 mps 753 mmHg 92%
    03:00 +5°C° 0 mm 1 mps 753 mmHg 92%
    04:00 +5°C° 0 mm 1 mps 753 mmHg 92%
    05:00 +5°C° 0 mm 1 mps 753 mmHg 91%
    06:00 +5°C° 0 mm 1 mps 752 mmHg 90%
    07:00 +7°C° 0 mm 1 mps 752 mmHg 82%
    08:00 +7°C° 0 mm 2 mps 752 mmHg 75%
    09:00 +9°C° 0 mm 2 mps 752 mmHg 67%
    10:00 +10°C° 0 mm 3 mps 752 mmHg 63%
    11:00 +11°C° 0 mm 4 mps 751 mmHg 59%
    12:00 +13°C° 0 mm 4 mps 751 mmHg 54%
    13:00 +13°C° 0 mm 4 mps 750 mmHg 56%
    14:00 +13°C° 0 mm 4 mps 750 mmHg 57%
    15:00 +13°C° 0 mm 4 mps 749 mmHg 58%
    16:00 +11°C° 0 mm 4 mps 749 mmHg 63%
    17:00 +10°C° 0 mm 4 mps 749 mmHg 68%
    18:00 +8°C° 0 mm 4 mps 749 mmHg 73%
    19:00 +8°C° 0 mm 4 mps 750 mmHg 76%
    20:00 +8°C° 0 mm 3 mps 750 mmHg 80%
    21:00 +8°C° 0 mm 3 mps 750 mmHg 83%
    22:00 +8°C° 0 mm 3 mps 749 mmHg 84%
    23:00 +8°C° 0 mm 3 mps 749 mmHg 86%

    Day after tomorrow, 24 October, Wednesday

    Time Temperature Precipitation Wind Pressure Humidity
    00:00 +8°C° 0 mm 3 mps 749 mmHg 87%
    01:00 +8°C° 0 mm 3 mps 749 mmHg 87%
    02:00 +8°C° 0 mm 3 mps 749 mmHg 87%
    03:00 +7°C° 0 mm 4 mps 748 mmHg 87%
    04:00 +7°C° 0 mm 4 mps 748 mmHg 88%
    05:00 +7°C° 0 mm 4 mps 748 mmHg 89%
    06:00 +7°C° 0 mm 4 mps 748 mmHg 89%
    07:00 +8°C° 0 mm 4 mps 748 mmHg 87%
    08:00 +10°C° 0 mm 4 mps 749 mmHg 86%
    09:00 +11°C° 0 mm 4 mps 749 mmHg 84%
    10:00 +12°C° 0 mm 4 mps 749 mmHg 84%
    11:00 +12°C° 0 mm 4 mps 749 mmHg 83%
    12:00 +13°C° 0 mm 4 mps 749 mmHg 83%
    13:00 +13°C° 0 mm 3 mps 749 mmHg 83%
    14:00 +13°C° 0 mm 3 mps 749 mmHg 83%
    15:00 +13°C° 0 mm 3 mps 749 mmHg 83%
    16:00 +13°C° 0 mm 3 mps 749 mmHg 87%
    17:00 +13°C° 0 mm 2 mps 748 mmHg 90%
    18:00 +12°C° 0 mm 2 mps 748 mmHg 94%
    19:00 +12°C° 0 mm 2 mps 749 mmHg 95%
    20:00 +12°C° 0 mm 2 mps 749 mmHg 95%
    21:00 +12°C° 0 mm 1 mps 749 mmHg 96%
    22:00 +11°C° 0 mm 1 mps 749 mmHg 96%
    23:00 +11°C° 0 mm 1 mps 748 mmHg 96%

    25 October, Thursday

    Time Temperature Precipitation Wind Pressure Humidity
    00:00 +10°C° 0 mm 1 mps 748 mmHg 96%
    01:00 +10°C° 0 mm 1 mps 748 mmHg 96%
    02:00 +9°C° 0 mm 0 mps 748 mmHg 96%
    03:00 +8°C° 0 mm 0 mps 747 mmHg 96%
    04:00 +8°C° 0 mm 0 mps 747 mmHg 96%
    05:00 +8°C° 0 mm 0 mps 747 mmHg 96%
    06:00 +8°C° 0 mm 0 mps 746 mmHg 96%
    07:00 +10°C° 0 mm 0 mps 746 mmHg 91%
    08:00 +11°C° 0 mm 0 mps 746 mmHg 86%
    09:00 +13°C° 0 mm 0 mps 746 mmHg 81%
    10:00 +14°C° 0 mm 0 mps 746 mmHg 76%
    11:00 +16°C° 0 mm 1 mps 745 mmHg 71%
    12:00 +18°C° 0 mm 1 mps 745 mmHg 66%
    13:00 +18°C° 0 mm 1 mps 744 mmHg 68%
    14:00 +18°C° 0 mm 1 mps 743 mmHg 69%
    15:00 +16°C° 0 mm 1 mps 743 mmHg 70%
    16:00 +15°C° 0 mm 1 mps 743 mmHg 75%
    17:00 +14°C° 0 mm 1 mps 742 mmHg 80%
    18:00 +12°C° 0 mm 0 mps 742 mmHg 85%
    19:00 +11°C° 0 mm 0 mps 742 mmHg 86%
    20:00 +12°C° 0 mm 1 mps 742 mmHg 86%
    21:00 +12°C° 0 mm 1 mps 741 mmHg 87%
    22:00 +11°C° 0 mm 1 mps 741 mmHg 89%
    23:00 +11°C° 0 mm 1 mps 740 mmHg 90%

    26 October, Friday

    Time Temperature Precipitation Wind Pressure Humidity
    00:00 +11°C° 0 mm 1 mps 740 mmHg 91%
    01:00 +10°C° 0 mm 1 mps 739 mmHg 91%
    02:00 +10°C° 0 mm 1 mps 739 mmHg 92%
    03:00 +10°C° 0 mm 1 mps 739 mmHg 92%
    04:00 +10°C° 0 mm 1 mps 738 mmHg 93%
    05:00 +10°C° 0 mm 1 mps 738 mmHg 94%
    06:00 +9°C° 0 mm 1 mps 738 mmHg 94%
    07:00 +9°C° 0 mm 2 mps 738 mmHg 90%
    08:00 +10°C° 0 mm 2 mps 737 mmHg 86%
    09:00 +11°C° 0 mm 3 mps 737 mmHg 82%
    10:00 +12°C° 0 mm 3 mps 737 mmHg 78%
    11:00 +13°C° 0 mm 3 mps 736 mmHg 74%
    12:00 +13°C° 0 mm 3 mps 736 mmHg 70%
    13:00 +13°C° 0 mm 3 mps 735 mmHg 71%
    14:00 +14°C° 0 mm 2 mps 735 mmHg 71%
    15:00 +14°C° 0 mm 2 mps 735 mmHg 72%
    16:00 +12°C° 0.1 mm 2 mps 735 mmHg 75%
    17:00 +10°C° 0.1 mm 2 mps 734 mmHg 79%
    18:00 +10°C° 0.1 mm 1 mps 734 mmHg 83%
    19:00 +10°C° 0.7 mm 1 mps 734 mmHg 85%
    20:00 +10°C° 0.7 mm 1 mps 734 mmHg 88%
    21:00 +8°C° 0.7 mm 2 mps 733 mmHg 90%
    22:00 +8°C° 1 mm 2 mps 733 mmHg 91%
    23:00 +7°C° 1 mm 2 mps 733 mmHg 91%

    27 October, Saturday

    Time Temperature Precipitation Wind Pressure Humidity
    00:00 +7°C° 1 mm 2 mps 732 mmHg 92%
    01:00 +7°C° 1 mm 2 mps 732 mmHg 91%
    02:00 +6°C° 1 mm 2 mps 732 mmHg 90%
    03:00 +6°C° 1 mm 2 mps 732 mmHg 89%
    04:00 +6°C° 0.4 mm 2 mps 732 mmHg 89%
    05:00 +7°C° 0.4 mm 1 mps 733 mmHg 90%
    06:00 +6°C° 0.4 mm 1 mps 733 mmHg 90%
    07:00 +6°C° 0.1 mm 2 mps 733 mmHg 87%
    08:00 +6°C° 0.1 mm 2 mps 733 mmHg 84%
    09:00 +7°C° 0.1 mm 2 mps 733 mmHg 81%
    10:00 +8°C° 0.1 mm 1 mps 733 mmHg 77%
    11:00 +9°C° 0.1 mm 1 mps 733 mmHg 73%
    12:00 +9°C° 0.1 mm 1 mps 733 mmHg 68%
    13:00 +9°C° 0.2 mm 1 mps 733 mmHg 69%
    14:00 +9°C° 0.2 mm 1 mps 732 mmHg 69%
    15:00 +9°C° 0.2 mm 1 mps 732 mmHg 69%
    16:00 +8°C° 0.1 mm 1 mps 732 mmHg 74%
    17:00 +6°C° 0.1 mm 0 mps 732 mmHg 79%
    18:00 +4°C° 0.1 mm 0 mps 732 mmHg 85%
    19:00 +4°C° 0 mm 0 mps 732 mmHg 86%
    20:00 +4°C° 0 mm 0 mps 732 mmHg 87%
    21:00 +4°C° 0 mm 1 mps 732 mmHg 88%
    22:00 +4°C° 0 mm 1 mps 732 mmHg 89%
    23:00 +4°C° 0 mm 1 mps 732 mmHg 89%

    28 October, Sunday

    Time Temperature Precipitation Wind Pressure Humidity
    00:00 +4°C° 0 mm 1 mps 732 mmHg 90%
    01:00 +4°C° 0 mm 1 mps 732 mmHg 90%
    02:00 +3°C° 0 mm 2 mps 732 mmHg 90%
    03:00 +3°C° 0 mm 2 mps 732 mmHg 90%
    04:00 +3°C° 0 mm 2 mps 732 mmHg 89%
    05:00 +3°C° 0 mm 2 mps 733 mmHg 88%
    06:00 +3°C° 0 mm 2 mps 733 mmHg 88%
    07:00 +3°C° 0 mm 2 mps 733 mmHg 83%
    08:00 +4°C° 0 mm 2 mps 734 mmHg 79%
    09:00 +4°C° 0 mm 3 mps 734 mmHg 75%
    10:00 +6°C° 0 mm 2 mps 735 mmHg 73%
    11:00 +6°C° 0 mm 2 mps 735 mmHg 71%
    12:00 +7°C° 0 mm 2 mps 736 mmHg 69%
    13:00 +7°C° 0 mm 2 mps 736 mmHg 70%
    14:00 +7°C° 0 mm 2 mps 736 mmHg 72%
    15:00 +7°C° 0 mm 2 mps 736 mmHg 74%
    16:00 +6°C° 0.1 mm 2 mps 737 mmHg 78%
    17:00 +6°C° 0.1 mm 1 mps 737 mmHg 82%
    18:00 +5°C° 0.1 mm 1 mps 738 mmHg 86%
    19:00 +5°C° 0 mm 1 mps 738 mmHg 87%
    20:00 +4°C° 0 mm 1 mps 738 mmHg 88%
    21:00 +4°C° 0 mm 1 mps 739 mmHg 90%
    22:00 +4°C° 0 mm 1 mps 739 mmHg 91%
    23:00 +3°C° 0 mm 1 mps 739 mmHg 92%
    Show more